STARLINK-5837, 56346

Orbit data source: Space-Track

STARLINK-5837, 56346 is a payload satellite owned by SpaceX/Seattle (US) in SSO that was launched on Thu, 27 Apr 2023 UTC via an FALCON 9 launch vehicle from the Air Force Western Test Range (AFWTR). Payload-class satellites include a variety of spacecraft equipped with specific instruments for various scientific and technological missions. These include communications satellites like Starlink; space stations such as the ISS; scientific satellites like the Hubble; Earth observation satellites from companies like Planet Labs, Umbra, and HawkEye 360; GPS; miniature CubeSats for education and research; and military/defense satellites.

Loading next visibility...
Identifier
56346, 2023-058AF
Orbit
SSO
Country
Flag of USUS
Related business
Manufacturer
SpaceX/Seattle
Mission
Operational Commercial Communications
Bus & Motor
STARLINK, Unknown motor
Mass
300 kg wet, ~260 kg dry
Launch date (UTC)
2023-04-27 (3 years ago)
Launch vehicle
FALCON 9
Launch site
Air Force Western Test Range (AFWTR)
Object type
Payload
Rocket body
Debris
Shape & HBR
Box + 1 Pan, 10.1 m
Radar Cross Section
11.087 m², Large (>1 m²)

Expand to show TLE details & history
Last TLE update: 2 days ago

TLE from 2 days ago
0 STARLINK-5837
1 56346U 23058AF  26170.94199591 -.00003766  00000-0 -25743-3 0  9993
2 56346  97.3434 169.8827 0001320 358.2958   1.8265 15.05620978173515
Epoch: 2026-06-19T22:36Z
TLE epoch observation values (Epoch: 2026-06-19T22:36:28.446Z)
Latitude
-0.00001°
Longitude
-77.39956°
Altitude
551.759 km
Speed
7.586 km/s
True Right ascension
11h 19m 31s
True Declination
0° 00' 00"
Sunlit
Object was in daylight at epoch
Visualization orbit readout
Latitude
Unknown
Longitude
Unknown
Altitude
Unknown
Speed
Unknown
Apparent Right ascension
Unknown
Apparent Declination
Unknown
Sunlit
N/A
Visualization observer readout
Local Sidereal Time
21:28:26
Azimuth
Unknown
Elevation
Unknown
Doppler factor
Unknown
Orbital elements
Apogee altitude
547.497 km
Perigee altitude
545.669 km
Semi-major axis
6,924.72 km
Eccentricity
0.00013
Inclination
97.3434°
RAAN
169.8827°
Arg. of periapsis
358.2958°
True anomaly
1.82698°
Mean anomaly
1.8265°
Eccentric anomaly
1.82674°
Mean motion
3.76652 °/min
Orbital period
95.58 mins
BSTAR
-0.00025743
Loading maneuver chart data...
Computing Atmospheric mass density...
Loading historical data...
Loading historical data...
Loading historical data...
Loading historical data...
Loading historical data...
Loading historical data...
Loading historical data...

Documentation

Showing up to 5 results
|